Погода в Речном

Россия / Астраханская область     46°55′47″N   47°37′02″E
темп.,
°C
ветер,
м/с
пор.,
м/с
влажн.,
%
обл.,
%
осадки,
мм/ч
давл.,
гПа
погр.,
м
21 июня, пн
пн2101:00+24в593584 0.0 1018144
04:00+24в5103589 0.0 1018143
07:00+25в611381 0.0 1018246
10:00+31вюв810282 0.0 1018913
13:00+33вюв810231 0.0 10171264
16:00+33вюв81022100 0.0 10161258
19:00+32вюв7102597 0.0 1016748
22:00+28юв44322 0.0 101629
22 июня, вт
вт2201:00+27в33330 0.0 101620
04:00+26всв45361 0.0 101658
07:00+27всв473727 0.0 1016137
10:00+33вюв68276 0.0 1016879
13:00+35в7825100 0.0 10151749
16:00+36вюв810264 0.0 10141760
19:00+34юв710285 0.0 10141324
22:00+29юв593685 0.0 1015128
23 июня, ср
ср2301:00+28в474287 0.0 1015117
04:00+29в8133799 0.0 1015290
07:00+28юв71346100 0.0 1016353
10:00+32ююв8103014 0.0 1017663
13:00+34юв782667 0.0 10171200
16:00+34вюв892412 0.0 10161210
19:00+32юв79260 0.0 1016893
22:00+28вюв46355 0.0 101679
24 июня, чт
чт2401:00+26вюв34365 0.0 101632
04:00+25в33365 0.0 101631
07:00+27всв46368 0.0 1016128
10:00+32в572964 0.0 1016586
13:00+35в67240 0.0 10151688
16:00+36вюв77210 0.0 10141864
19:00+35вюв79235 0.0 1014705
22:00+29ю44300 0.0 101430
25 июня, пт
пт2501:00+27зсз11380 0.0 101411
04:00+26ссв55375 0.0 101353
07:00+28вюв3437100 0.0 101485
10:00+34вюв572842 0.0 1013783
13:00+36юв45240 0.0 10121940
16:00+37ю55226 0.0 10102161
19:00+36ю6824100 0.0 1010555
22:00+31ююз3432100 0.0 101141